Weather in Goncharovka

Russia / Primorsky Krai     45°55′42″N   134°24′00″E
temp.,
°C
wind,
m/s
gust,
m/s
humid.,
%
clouds,
%
prec.,
mm/h
press.,
hPa
HPBL,
m
28 june, tue
tue2801:00+16e1190100 0.0 100611
04:00+15e2389100 0.0 100544
07:00+16e2684100 0.0 1003156
10:00+21e3665100 0.0 1001327
13:00+24ese4759100 0.0 999623
16:00+20ese2873100 0.0 998293
19:00+19e41281100 0.3 998682
22:00+17e2995100 1.2 999315
29 june, wed
wed2901:00+17ene3998100 4.2 999410
04:00+16e3998100 6.6 1000252
07:00+16ene2798100 0.4 1002246
10:00+17e289498 0.4 1003302
13:00+21ese367098 0.0 1004511
16:00+23sse345922 0.0 1004827
19:00+21ssw34739 0.0 1005395
22:00+16s1195100 0.0 100711
30 june, thu
thu3001:00+15se1196100 0.0 100811
04:00+15e1194100 0.0 100922
07:00+16ese1188100 0.0 101072
10:00+19ssw1273100 0.0 1010236
13:00+18w1384100 0.1 1011134
16:00+17e1296100 0.9 101174
19:00+16e2696100 0.2 1011280
22:00+16ese2496100 0.3 1012121
1 july, fri
fri101:00+16e2598100 1.6 1011187
04:00+16e2498100 2.3 1012124
07:00+15e2399100 3.2 1012114
10:00+16e1396100 3.8 1013168
13:00+17ese1297100 0.4 1013101
16:00+17ese1296100 0.6 101274
19:00+17ese1196100 0.0 101131
22:00+17e1196100 0.0 101117
2 july, sat
sat201:00+16se1195100 0.0 101011
04:00+17s1196100 0.0 101015
07:00+17sw129799 0.0 101088
10:00+19sw139299 0.0 1009402
13:00+23sw247897 0.1 1008799
16:00+25w236824 0.2 1007976
19:00+25wnw13764 0.1 1006553
22:00+20ese1195100 4.9 100611